Time,TemperatureF,DewpointF,PressureIn,WindDirection,WindDirectionDegrees,WindSpeedMPH,WindSpeedGustMPH,Humidity,HourlyPrecipIn,Conditions,Clouds,dailyrainin,SoftwareType,DateUTC
2013-04-19 00:03:00,68.0,57.0,29.94,South,172,4.0,10.0,68,0.00,,,0.00,,2013-04-19 04:03:00,
2013-04-19 00:13:00,68.0,57.0,29.94,South,172,4.0,10.0,68,0.00,,,0.00,,2013-04-19 04:13:00,
2013-04-19 00:23:00,67.0,56.0,29.94,SSW,207,4.0,10.0,68,0.00,,,0.00,,2013-04-19 04:23:00,
2013-04-19 00:33:00,67.0,56.0,29.93,South,171,6.0,13.0,68,0.00,,,0.00,,2013-04-19 04:33:00,
2013-04-19 00:43:00,67.0,56.0,29.91,South,186,7.0,15.0,69,0.00,,,0.00,,2013-04-19 04:43:00,
2013-04-19 00:52:00,67.0,56.0,29.91,South,186,7.0,15.0,69,0.00,,,0.00,,2013-04-19 04:52:00,
2013-04-19 01:03:00,67.0,56.0,29.91,SSW,198,5.0,13.0,69,0.00,,,0.00,,2013-04-19 05:03:00,
2013-04-19 01:12:00,67.0,56.0,29.91,SSW,198,5.0,13.0,69,0.00,,,0.00,,2013-04-19 05:12:00,
2013-04-19 01:22:00,67.0,57.0,29.91,SSW,197,7.0,10.0,70,0.00,,,0.00,,2013-04-19 05:22:00,
2013-04-19 01:32:00,66.0,56.0,29.91,South,178,7.0,17.0,70,0.00,,,0.00,,2013-04-19 05:32:00,
2013-04-19 01:42:00,66.0,56.0,29.91,South,178,7.0,17.0,70,0.00,,,0.00,,2013-04-19 05:42:00,
2013-04-19 01:52:00,66.0,56.0,29.89,SSE,157,6.0,15.0,71,0.00,,,0.00,,2013-04-19 05:52:00,
2013-04-19 02:02:00,66.0,56.0,29.89,South,173,5.0,13.0,71,0.00,,,0.00,,2013-04-19 06:02:00,
2013-04-19 02:12:00,66.0,57.0,29.90,SSW,205,6.0,12.0,72,0.00,,,0.00,,2013-04-19 06:12:00,
2013-04-19 02:22:00,66.0,57.0,29.90,SSW,205,6.0,12.0,72,0.00,,,0.00,,2013-04-19 06:22:00,
2013-04-19 02:32:00,66.0,57.0,29.89,SSW,199,5.0,13.0,72,0.00,,,0.00,,2013-04-19 06:32:00,
2013-04-19 02:42:00,66.0,57.0,29.89,SSW,199,5.0,13.0,72,0.00,,,0.00,,2013-04-19 06:42:00,
2013-04-19 02:53:00,66.0,57.0,29.87,SW,217,6.0,16.0,73,0.00,,,0.00,,2013-04-19 06:53:00,
2013-04-19 03:02:00,65.0,56.0,29.87,SSW,209,6.0,12.0,73,0.00,,,0.00,,2013-04-19 07:02:00,
2013-04-19 03:12:00,65.0,56.0,29.86,South,170,4.0,10.0,73,0.00,,,0.00,,2013-04-19 07:12:00,
2013-04-19 03:21:00,65.0,56.0,29.86,South,170,4.0,10.0,73,0.00,,,0.00,,2013-04-19 07:21:00,
2013-04-19 03:32:00,65.0,56.0,29.85,SSW,194,4.0,11.0,73,0.00,,,0.00,,2013-04-19 07:32:00,
2013-04-19 03:42:00,65.0,56.0,29.85,SSW,194,4.0,11.0,73,0.00,,,0.00,,2013-04-19 07:42:00,
2013-04-19 03:52:00,65.0,56.0,29.85,SSE,158,4.0,11.0,74,0.00,,,0.00,,2013-04-19 07:52:00,
2013-04-19 04:02:00,65.0,56.0,29.85,SSE,160,4.0,9.0,74,0.00,,,0.00,,2013-04-19 08:02:00,
2013-04-19 04:12:00,65.0,56.0,29.84,SSE,154,3.0,9.0,74,0.00,,,0.00,,2013-04-19 08:12:00,
2013-04-19 04:22:00,65.0,56.0,29.84,SSE,154,3.0,9.0,74,0.00,,,0.00,,2013-04-19 08:22:00,
2013-04-19 04:33:00,65.0,57.0,29.84,South,178,4.0,8.0,75,0.00,,,0.00,,2013-04-19 08:33:00,
2013-04-19 04:42:00,65.0,56.0,29.84,SSE,161,4.0,8.0,74,0.00,,,0.00,,2013-04-19 08:42:00,
2013-04-19 04:52:00,65.0,56.0,29.84,SSE,161,4.0,8.0,74,0.00,,,0.00,,2013-04-19 08:52:00,
2013-04-19 05:01:00,65.0,57.0,29.84,SSW,202,4.0,7.0,75,0.00,,,0.00,,2013-04-19 09:01:00,
2013-04-19 05:12:00,65.0,57.0,29.84,SSW,202,4.0,7.0,75,0.00,,,0.00,,2013-04-19 09:12:00,
2013-04-19 05:21:00,65.0,56.0,29.84,SSW,209,4.0,7.0,74,0.00,,,0.00,,2013-04-19 09:21:00,
2013-04-19 05:32:00,65.0,56.0,29.83,South,182,3.0,13.0,74,0.00,,,0.00,,2013-04-19 09:32:00,
2013-04-19 05:43:00,65.0,56.0,29.83,South,182,3.0,13.0,74,0.00,,,0.00,,2013-04-19 09:43:00,
2013-04-19 05:52:00,65.0,56.0,29.82,SSE,156,3.0,9.0,74,0.00,,,0.00,,2013-04-19 09:52:00,
2013-04-19 06:02:00,64.0,56.0,29.82,SSE,153,3.0,7.0,75,0.00,,,0.00,,2013-04-19 10:02:00,
2013-04-19 06:13:00,64.0,56.0,29.83,SSE,158,4.0,10.0,75,0.00,,,0.00,,2013-04-19 10:13:00,
2013-04-19 06:23:00,64.0,56.0,29.83,SSE,158,4.0,10.0,75,0.00,,,0.00,,2013-04-19 10:23:00,
2013-04-19 06:33:00,64.0,56.0,29.82,South,178,5.0,9.0,75,0.00,,,0.00,,2013-04-19 10:33:00,
2013-04-19 06:42:00,65.0,57.0,29.82,South,173,6.0,15.0,75,0.04,,,0.04,,2013-04-19 10:42:00,
2013-04-19 06:52:00,65.0,57.0,29.82,South,173,6.0,15.0,75,0.04,,,0.04,,2013-04-19 10:52:00,
2013-04-19 07:03:00,64.0,56.0,29.83,SSW,211,5.0,9.0,75,0.04,,,0.04,,2013-04-19 11:03:00,
2013-04-19 07:11:00,64.0,56.0,29.83,SSW,211,5.0,9.0,75,0.04,,,0.04,,2013-04-19 11:11:00,
2013-04-19 07:22:00,64.0,56.0,29.82,SSW,198,4.0,12.0,76,0.04,,,0.04,,2013-04-19 11:22:00,
2013-04-19 07:32:00,65.0,57.0,29.82,SE,143,5.0,15.0,76,0.04,,,0.04,,2013-04-19 11:32:00,
2013-04-19 07:42:00,65.0,57.0,29.82,SE,143,5.0,15.0,76,0.04,,,0.04,,2013-04-19 11:42:00,
2013-04-19 07:52:00,65.0,57.0,29.83,South,174,5.0,10.0,75,0.00,,,0.04,,2013-04-19 11:52:00,
2013-04-19 08:03:00,65.0,57.0,29.82,SSW,207,5.0,12.0,75,0.00,,,0.04,,2013-04-19 12:03:00,
2013-04-19 08:12:00,66.0,58.0,29.82,SSW,202,4.0,12.0,75,0.00,,,0.04,,2013-04-19 12:12:00,
2013-04-19 08:22:00,66.0,58.0,29.82,SSW,202,4.0,12.0,75,0.00,,,0.04,,2013-04-19 12:22:00,
2013-04-19 08:32:00,66.0,58.0,29.81,SE,140,4.0,13.0,75,0.00,,,0.04,,2013-04-19 12:32:00,
2013-04-19 08:42:00,66.0,58.0,29.81,SE,140,4.0,13.0,75,0.00,,,0.04,,2013-04-19 12:42:00,
2013-04-19 08:53:00,67.0,58.0,29.81,South,181,6.0,15.0,74,0.00,,,0.04,,2013-04-19 12:53:00,
2013-04-19 09:01:00,67.0,58.0,29.79,South,170,7.0,18.0,74,0.00,,,0.04,,2013-04-19 13:01:00,
2013-04-19 09:11:00,67.0,58.0,29.78,SSW,209,9.0,16.0,74,0.00,,,0.04,,2013-04-19 13:11:00,
2013-04-19 09:22:00,67.0,58.0,29.78,SSW,209,9.0,16.0,74,0.00,,,0.04,,2013-04-19 13:22:00,
2013-04-19 09:32:00,68.0,59.0,29.77,SSW,192,8.0,17.0,74,0.00,,,0.04,,2013-04-19 13:32:00,
2013-04-19 09:42:00,68.0,59.0,29.77,SSW,192,8.0,17.0,74,0.00,,,0.04,,2013-04-19 13:42:00,
2013-04-19 09:52:00,70.0,60.0,29.76,South,175,7.0,17.0,71,0.00,,,0.04,,2013-04-19 13:52:00,
2013-04-19 10:02:00,70.0,59.0,29.75,South,178,10.0,21.0,69,0.00,,,0.04,,2013-04-19 14:02:00,
2013-04-19 10:11:00,70.0,60.0,29.75,South,184,11.0,22.0,70,0.00,,,0.04,,2013-04-19 14:11:00,
2013-04-19 10:22:00,70.0,60.0,29.75,South,184,11.0,22.0,70,0.00,,,0.04,,2013-04-19 14:22:00,
2013-04-19 10:32:00,70.0,60.0,29.75,SE,134,6.0,19.0,70,0.00,,,0.04,,2013-04-19 14:32:00,
2013-04-19 10:43:00,70.0,60.0,29.75,SE,134,6.0,19.0,70,0.00,,,0.04,,2013-04-19 14:43:00,
2013-04-19 10:52:00,69.0,60.0,29.75,South,190,8.0,17.0,72,0.00,,,0.04,,2013-04-19 14:52:00,
2013-04-19 11:02:00,70.0,60.0,29.74,SSW,196,7.0,20.0,71,0.00,,,0.04,,2013-04-19 15:02:00,
2013-04-19 11:12:00,71.0,61.0,29.74,SSW,201,7.0,17.0,71,0.00,,,0.04,,2013-04-19 15:12:00,
2013-04-19 11:22:00,71.0,61.0,29.74,SSW,201,7.0,17.0,71,0.00,,,0.04,,2013-04-19 15:22:00,
2013-04-19 11:33:00,70.0,59.0,29.74,SSW,203,8.0,18.0,69,0.00,,,0.04,,2013-04-19 15:33:00,
2013-04-19 11:43:00,70.0,59.0,29.74,SSW,203,8.0,18.0,69,0.00,,,0.04,,2013-04-19 15:43:00,
2013-04-19 11:52:00,70.0,60.0,29.74,SSW,198,10.0,24.0,70,0.00,,,0.04,,2013-04-19 15:52:00,
2013-04-19 12:03:00,70.0,60.0,29.73,SSW,202,10.0,18.0,70,0.00,,,0.04,,2013-04-19 16:03:00,
2013-04-19 12:13:00,71.0,61.0,29.70,SSW,213,10.0,20.0,70,0.00,,,0.04,,2013-04-19 16:13:00,
2013-04-19 12:23:00,71.0,61.0,29.70,SSW,213,10.0,20.0,70,0.00,,,0.04,,2013-04-19 16:23:00,
2013-04-19 12:32:00,73.0,62.0,29.71,SSW,207,10.0,22.0,68,0.00,,,0.04,,2013-04-19 16:32:00,
2013-04-19 12:42:00,72.0,61.0,29.70,South,178,11.0,20.0,68,0.00,,,0.04,,2013-04-19 16:42:00,
2013-04-19 12:53:00,72.0,61.0,29.70,South,178,11.0,20.0,68,0.00,,,0.04,,2013-04-19 16:53:00,
2013-04-19 13:02:00,73.0,62.0,29.69,SSW,199,7.0,22.0,69,0.00,,,0.04,,2013-04-19 17:02:00,
2013-04-19 13:12:00,73.0,62.0,29.69,SSW,199,7.0,22.0,69,0.00,,,0.04,,2013-04-19 17:12:00,
2013-04-19 13:22:00,73.0,62.0,29.68,SSW,207,7.0,18.0,68,0.00,,,0.04,,2013-04-19 17:22:00,
2013-04-19 13:33:00,74.0,62.0,29.67,SW,217,14.0,25.0,66,0.00,,,0.04,,2013-04-19 17:33:00,
2013-04-19 13:42:00,74.0,62.0,29.67,SW,217,14.0,25.0,66,0.00,,,0.04,,2013-04-19 17:42:00,
2013-04-19 13:52:00,74.0,62.0,29.65,South,191,8.0,26.0,66,0.00,,,0.04,,2013-04-19 17:52:00,
2013-04-19 14:02:00,74.0,61.0,29.64,SSW,202,9.0,22.0,65,0.00,,,0.04,,2013-04-19 18:02:00,
2013-04-19 14:13:00,74.0,61.0,29.64,SSW,202,9.0,22.0,65,0.00,,,0.04,,2013-04-19 18:13:00,
2013-04-19 14:23:00,75.0,62.0,29.60,SSE,168,11.0,18.0,64,0.00,,,0.04,,2013-04-19 18:23:00,
2013-04-19 14:33:00,74.0,61.0,29.60,SW,215,10.0,26.0,65,0.00,,,0.04,,2013-04-19 18:33:00,
2013-04-19 14:43:00,74.0,61.0,29.60,SW,215,10.0,26.0,65,0.00,,,0.04,,2013-04-19 18:43:00,
2013-04-19 14:52:00,75.0,62.0,29.60,South,171,10.0,20.0,64,0.00,,,0.04,,2013-04-19 18:52:00,
2013-04-19 15:02:00,74.0,61.0,29.59,South,186,10.0,25.0,64,0.00,,,0.04,,2013-04-19 19:02:00,
2013-04-19 15:11:00,74.0,61.0,29.59,South,186,10.0,25.0,64,0.00,,,0.04,,2013-04-19 19:11:00,
2013-04-19 15:21:00,75.0,62.0,29.59,South,183,16.0,24.0,64,0.00,,,0.04,,2013-04-19 19:21:00,
2013-04-19 15:32:00,75.0,62.0,29.59,SSW,207,13.0,24.0,64,0.00,,,0.04,,2013-04-19 19:32:00,
2013-04-19 15:42:00,75.0,62.0,29.59,SSW,207,13.0,24.0,64,0.00,,,0.04,,2013-04-19 19:42:00,
2013-04-19 15:52:00,75.0,62.0,29.58,SW,222,14.0,30.0,64,0.00,,,0.04,,2013-04-19 19:52:00,
2013-04-19 16:02:00,75.0,62.0,29.57,South,186,15.0,22.0,64,0.00,,,0.04,,2013-04-19 20:02:00,
2013-04-19 16:11:00,74.0,61.0,29.57,SW,223,13.0,24.0,65,0.02,,,0.06,,2013-04-19 20:11:00,
2013-04-19 16:22:00,74.0,61.0,29.57,SW,223,13.0,24.0,65,0.02,,,0.06,,2013-04-19 20:22:00,
2013-04-19 16:32:00,74.0,62.0,29.57,SSW,197,12.0,22.0,67,0.02,,,0.06,,2013-04-19 20:32:00,
2013-04-19 16:42:00,73.0,62.0,29.56,SW,214,8.0,19.0,68,0.02,,,0.06,,2013-04-19 20:42:00,
2013-04-19 16:52:00,73.0,62.0,29.56,SW,214,8.0,19.0,68,0.02,,,0.06,,2013-04-19 20:52:00,
2013-04-19 17:01:00,74.0,62.0,29.56,SSW,210,11.0,20.0,67,0.02,,,0.06,,2013-04-19 21:01:00,
2013-04-19 17:11:00,73.0,62.0,29.56,SSW,203,9.0,15.0,69,0.00,,,0.06,,2013-04-19 21:11:00,
2013-04-19 17:21:00,73.0,62.0,29.56,SSW,203,9.0,15.0,69,0.00,,,0.06,,2013-04-19 21:21:00,
2013-04-19 17:32:00,72.0,63.0,29.57,SSW,193,9.0,14.0,73,0.03,,,0.09,,2013-04-19 21:32:00,
2013-04-19 17:42:00,72.0,63.0,29.57,SSW,193,9.0,14.0,73,0.03,,,0.09,,2013-04-19 21:42:00,
2013-04-19 17:53:00,70.0,63.0,29.58,SSW,211,8.0,11.0,78,0.11,,,0.17,,2013-04-19 21:53:00,
2013-04-19 18:02:00,67.0,60.0,29.64,West,278,20.0,35.0,77,0.29,,,0.35,,2013-04-19 22:02:00,
2013-04-19 18:12:00,62.0,56.0,29.64,West,261,4.0,15.0,81,0.65,,,0.71,,2013-04-19 22:12:00,
2013-04-19 18:23:00,62.0,56.0,29.64,West,261,4.0,15.0,81,0.65,,,0.71,,2013-04-19 22:23:00,
2013-04-19 18:33:00,62.0,57.0,29.61,West,276,4.0,9.0,83,0.72,,,0.81,,2013-04-19 22:33:00,
2013-04-19 18:42:00,62.0,57.0,29.63,WNW,284,4.0,7.0,83,0.67,,,0.84,,2013-04-19 22:42:00,
2013-04-19 18:52:00,62.0,57.0,29.63,WNW,284,4.0,7.0,83,0.67,,,0.84,,2013-04-19 22:52:00,
2013-04-19 19:03:00,61.0,55.0,29.67,West,272,8.0,13.0,82,0.50,,,0.88,,2013-04-19 23:03:00,
2013-04-19 19:11:00,61.0,55.0,29.67,West,272,8.0,13.0,82,0.50,,,0.88,,2013-04-19 23:11:00,
2013-04-19 19:22:00,59.0,53.0,29.67,WNW,289,6.0,11.0,81,0.20,,,0.91,,2013-04-19 23:22:00,
2013-04-19 19:32:00,58.0,52.0,29.68,NW,305,6.0,10.0,80,0.13,,,0.94,,2013-04-19 23:32:00,
2013-04-19 19:42:00,58.0,52.0,29.68,NW,305,6.0,10.0,80,0.13,,,0.94,,2013-04-19 23:42:00,
2013-04-19 19:53:00,58.0,52.0,29.67,WNW,298,2.0,6.0,80,0.10,,,0.94,,2013-04-19 23:53:00,
2013-04-19 20:02:00,58.0,50.0,29.68,WNW,294,6.0,10.0,76,0.06,,,0.94,,2013-04-20 00:02:00,
2013-04-19 20:12:00,58.0,50.0,29.68,WNW,294,6.0,10.0,76,0.06,,,0.94,,2013-04-20 00:12:00,
2013-04-19 20:22:00,57.0,46.0,29.68,WNW,286,10.0,17.0,66,0.02,,,0.94,,2013-04-20 00:22:00,
2013-04-19 20:32:00,57.0,45.0,29.69,WNW,287,6.0,14.0,63,0.00,,,0.94,,2013-04-20 00:32:00,
2013-04-19 20:42:00,57.0,45.0,29.69,WNW,287,6.0,14.0,63,0.00,,,0.94,,2013-04-20 00:42:00,
2013-04-19 20:52:00,57.0,45.0,29.70,WNW,290,4.0,17.0,63,0.00,,,0.94,,2013-04-20 00:52:00,
2013-04-19 21:01:00,57.0,46.0,29.70,WNW,292,3.0,4.0,66,0.00,,,0.94,,2013-04-20 01:01:00,
2013-04-19 21:11:00,57.0,46.0,29.70,WNW,292,3.0,4.0,66,0.00,,,0.94,,2013-04-20 01:11:00,
2013-04-19 21:21:00,57.0,45.0,29.73,NW,324,6.0,10.0,64,0.00,,,0.94,,2013-04-20 01:21:00,
2013-04-19 21:32:00,56.0,42.0,29.73,NW,305,8.0,13.0,59,0.00,,,0.94,,2013-04-20 01:32:00,
2013-04-19 21:42:00,56.0,42.0,29.73,NW,305,8.0,13.0,59,0.00,,,0.94,,2013-04-20 01:42:00,
2013-04-19 21:52:00,55.0,41.0,29.75,WNW,288,6.0,10.0,59,0.00,,,0.94,,2013-04-20 01:52:00,
2013-04-19 22:02:00,55.0,41.0,29.75,WNW,286,4.0,10.0,60,0.00,,,0.94,,2013-04-20 02:02:00,
2013-04-19 22:11:00,55.0,41.0,29.76,NNW,338,7.0,17.0,59,0.00,,,0.94,,2013-04-20 02:11:00,
2013-04-19 22:21:00,55.0,41.0,29.76,NNW,338,7.0,17.0,59,0.00,,,0.94,,2013-04-20 02:21:00,
2013-04-19 22:32:00,54.0,40.0,29.76,WNW,303,8.0,13.0,58,0.00,,,0.94,,2013-04-20 02:32:00,
2013-04-19 22:42:00,54.0,40.0,29.76,WNW,303,8.0,13.0,58,0.00,,,0.94,,2013-04-20 02:42:00,
2013-04-19 22:52:00,54.0,40.0,29.76,WNW,298,4.0,13.0,59,0.00,,,0.94,,2013-04-20 02:52:00,
2013-04-19 23:01:00,54.0,40.0,29.77,NW,304,4.0,14.0,60,0.00,,,0.94,,2013-04-20 03:01:00,
2013-04-19 23:11:00,54.0,40.0,29.78,NW,309,6.0,13.0,59,0.00,,,0.94,,2013-04-20 03:11:00,
2013-04-19 23:21:00,54.0,40.0,29.78,NW,309,6.0,13.0,59,0.00,,,0.94,,2013-04-20 03:21:00,
2013-04-19 23:33:00,54.0,40.0,29.77,WNW,298,4.0,12.0,60,0.00,,,0.94,,2013-04-20 03:33:00,
2013-04-19 23:43:00,53.0,41.0,29.78,WNW,286,3.0,6.0,63,0.00,,,0.94,,2013-04-20 03:43:00,
2013-04-19 23:53:00,53.0,41.0,29.78,WNW,286,3.0,6.0,63,0.00,,,0.94,,2013-04-20 03:53:00,